Home > Weather > Fushun > Past weeks

Flag for China Weather for the Past 2 Weeks in Fushun, Liaoning, China

Now
63 °F

Partly sunny.


Feels Like: 63 °F
Forecast: 50 / 67 °F
Wind: 13 mph from West

Location: Shenyang / Taoxian

Current Time: May 6, 2016 at 12:09:12 PM

Latest Report: May 6, 2016 at 11:30 AM


Visibility: N/A

Pressure: 29.68 "Hg

Humidity: 42%

Dew Point: 39 °F

Location of FushunLocation

Historic Weather in Fushun — Graph

°F

Fushun Temperature Yesterday

Maximum temperature yesterday: 68 °F (at 8:30 AM)
Minimum temperature yesterday: 43 °F (at 5:00 AM)
Average temperature yesterday: 56 °F

High & Low Weather Summary for the Past Weeks

 TemperatureHumidityPressure
High77 °F (May 2, 12:30 PM)100% (May 3, 3:00 AM)30.09 "Hg (May 3, 3:00 AM)
Low39 °F (Apr 23, 5:00 AM)11% (Apr 22, 12:00 PM)28.85 "Hg (May 3, 12:30 PM)
Average58 °F53%29.74 "Hg
* Reported Apr 21 11:00 AM — May 6 11:00 AM, Fushun, Weather by CustomWeather, © 2016

Note: Actual official high and low records may vary slightly from our data, if they occured in-between our weather recording intervals... More about our weather records

Advertising

Fushun Weather History for the Previous 24 Hours

Scroll right to see more
 ConditionsComfort  
Time TempWeatherWind HumidityBarometerVisibility
11:00 AM
Fri, May 6
61 °FPartly sunny.15 mph45%29.68 "HgN/A
10:30 AM63 °FPartly sunny.15 mph42%29.68 "HgN/A
10:00 AM61 °FPartly sunny.13 mph45%29.68 "HgN/A
9:30 AM59 °FPassing clouds.10 mph59%29.68 "HgN/A
9:00 AM59 °FClear.10 mph63%29.68 "Hg5 mi
8:30 AM57 °FClear.8 mph72%29.68 "Hg4 mi
8:00 AM55 °FClear.6 mph82%29.68 "Hg4 mi
7:30 AM54 °FClear.8 mph88%29.68 "Hg4 mi
7:00 AM54 °FClear.6 mph88%29.68 "Hg4 mi
6:30 AM52 °FClear.3 mph88%29.68 "Hg4 mi
6:00 AM52 °FPartly sunny.3 mph88%29.68 "Hg4 mi
5:30 AM50 °FFog.1 mph94%29.65 "Hg3 mi
5:00 AM50 °FFog.3 mph94%29.65 "Hg3 mi
4:30 AM50 °FFog.3 mph94%29.65 "Hg3 mi
4:00 AM50 °FPassing clouds.1 mph94%29.65 "Hg4 mi
3:30 AM50 °FPassing clouds.3 mph94%29.65 "Hg4 mi
3:00 AM50 °FPassing clouds.1 mph94%29.65 "Hg4 mi
2:30 AM52 °FPassing clouds.3 mph88%29.65 "HgN/A
2:00 AM52 °FPassing clouds.1 mph88%29.65 "HgN/A
1:30 AM52 °FPassing clouds.1 mph88%29.65 "HgN/A
1:00 AM52 °FOvercast.1 mph88%29.68 "HgN/A
12:30 AM52 °FOvercast.3 mph94%29.68 "HgN/A
12:00 AM52 °FOvercast.1 mph94%29.68 "HgN/A
11:30 PM
Thu, May 5
52 °FOvercast.No wind94%29.68 "HgN/A
10:00 PM54 °FOvercast.1 mph77%29.68 "HgN/A
9:30 PM54 °FOvercast.No wind82%29.71 "HgN/A
9:00 PM54 °FOvercast.1 mph82%29.71 "HgN/A
8:30 PM54 °FOvercast.1 mph82%29.71 "HgN/A
8:00 PM55 °FOvercast.6 mph72%29.71 "HgN/A
7:30 PM55 °FOvercast.6 mph72%29.68 "HgN/A
7:00 PM55 °FOvercast.3 mph72%29.65 "HgN/A
6:30 PM55 °FLight rain. Overcast.10 mph67%29.68 "HgN/A
6:00 PM55 °FLight rain. Overcast.6 mph72%29.68 "HgN/A
5:30 PM55 °FLight rain. Overcast.6 mph77%29.68 "HgN/A
5:00 PM55 °FLight rain. Overcast.8 mph77%29.71 "HgN/A
4:30 PM55 °FLight rain. Overcast.10 mph72%29.71 "HgN/A
4:00 PM55 °FLight rain. Overcast.6 mph82%29.74 "HgN/A
3:30 PM55 °FLight rain. Overcast.10 mph77%29.77 "HgN/A
3:00 PM61 °FLight rain. Overcast.8 mph59%29.77 "HgN/A
2:30 PM64 °FLight rain. Overcast.8 mph43%29.77 "HgN/A
2:00 PM64 °FLight rain. Overcast.6 mph46%29.74 "HgN/A
1:30 PM66 °FLight rain. Overcast.6 mph49%29.77 "HgN/A
1:00 PM64 °FOvercast.6 mph64%29.77 "HgN/A
12:30 PM64 °FOvercast.3 mph64%29.77 "HgN/A
12:00 PM64 °FOvercast.8 mph60%29.80 "HgN/A
Weather by CustomWeather, © 2016

See weather overviewHow to use our weather pages